Location: Mountain Grove
(34.0887°N, 86.6172°W)
Time: 21:32:36
(UTC+00:00)

Cosmos 2221 - Pass Details

Date: 14 July 2020
Orbit: 592 x 616 km, 82.5° (Epoch: 08 August)

Event Time Altitude Azimuth Distance (km) Brightness Sun altitude
Rises 03:28:41 0° 345° (NNW) 2,871 7.1 -24.6°
Reaches altitude 10° 03:31:00 10° 339° (NNW) 1,959 6.1 -24.9°
Maximum altitude 03:35:05 43° 268° (W) 855 3.4 -25.4°
Enters shadow 03:35:30 41° 251° (WSW) 873 3.3 -25.5°
